Flag Weather past 2 weeks in Berkeley, California, U.S.A.

Now
46 °F

Fog.


Feels Like: 45 °F
Forecast: 49 / 59 °F
Wind: 3 mph from Northeast

Location: Metro Oakland International Airport

Current Time: Nov 28, 2014 at 2:01:46 AM

Latest Report: Nov 28, 2014 at 12:53 AM


Visibility: 2 mi

Pressure: 30.06 "Hg

Humidity: 89%

Dew point: 43 °F

Location of BerkeleyLocation

Historic Weather in Berkeley — Graph

°F

Berkeley temperature yesterday

Maximum temperature yesterday: 65 °F (at 2:53 PM)
Minimum temperature yesterday: 45 °F (at 6:53 AM)
Average temperature yesterday: 53 °F

Past Weeks' High & Low Weather Summary

 TemperatureHumidityPressure
High66 °F (Nov 17, 11:53 AM)97% (Nov 20, 3:53 AM)30.46 "Hg (Nov 20, 3:53 AM)
Low41 °F (Nov 24, 5:53 AM)18% (Nov 16, 12:53 PM)29.93 "Hg (Nov 13, 4:53 AM)
Average56 °F73%30.16 "Hg
* Reported Nov 13 12:04 AM — Nov 28 12:53 AM, Berkeley, Weather by CustomWeather, © 2014

Note: Actual official high and low records may vary slightly from our data, if they occured in-between our weather recording intervals... More about our weather records

Advertising

Berkeley weather history for previous 24 hours

 ConditionsComfort  
Time TempWeatherWind HumidityBarometerVisibility
12:53 AM
Nov 28
46 °FFog.3 mph89%30.06 "Hg2 mi
11:53 PM
Nov 27
47 °FFog.3 mph90%30.07 "Hg0 mi
10:53 PM47 °FFog.No wind90%30.07 "Hg2 mi
9:53 PM49 °FFog.3 mph84%30.07 "Hg5 mi
8:53 PM52 °FFog.3 mph80%30.07 "Hg7 mi
7:53 PM50 °FClear.No wind83%30.06 "Hg5 mi
6:53 PM56 °FPassing clouds.No wind75%30.06 "Hg8 mi
5:53 PM58 °FPassing clouds.No wind72%30.05 "Hg9 mi
4:53 PM60 °FPassing clouds.No wind72%30.06 "Hg8 mi
3:53 PM63 °FPassing clouds.6 mph65%30.07 "Hg9 mi
2:53 PM65 °FPassing clouds.7 mph61%30.08 "Hg8 mi
1:53 PM63 °FPartly sunny.7 mph65%30.09 "Hg6 mi
12:53 PM62 °FPartly sunny.7 mph67%30.11 "Hg5 mi
11:53 AM59 °FPartly sunny.5 mph67%30.14 "Hg5 mi
10:53 AM56 °FPartly sunny.3 mph81%30.17 "Hg5 mi
9:53 AM57 °FPartly sunny.3 mph81%30.19 "Hg5 mi
8:53 AM52 °FFog.No wind89%30.19 "Hg5 mi
7:53 AM47 °FFog.No wind90%30.18 "Hg5 mi
6:53 AM45 °FFog.3 mph90%30.17 "Hg5 mi
5:53 AM47 °FFog.No wind90%30.17 "Hg6 mi
4:53 AM47 °FFog.3 mph90%30.16 "Hg6 mi
3:53 AM49 °FPassing clouds.No wind90%30.17 "Hg9 mi
2:53 AM49 °FPassing clouds.No wind90%30.18 "Hg7 mi
Weather by CustomWeather, © 2014

See weather overviewHow to use our weather pages